When you browse on this site, cookies collect data to enhance your experience and personalize the content and advertising you see.
Visit our Privacy Policy to learn more. By continuing to use the site, you agree to this use of cookies and data.
  • In Hungary
  • List of Countries
  • For 7 days
  • Water Temperature
  • Weather Map
  • News
  • Weather Widgets
  • user-avatar
    Login

    Hourly Weather Aquitania

    Today, 6 December, Friday

    Time Temperature Precipitation Wind Pressure Humidity
    00:00 +7°C° 0 mm 1 mps 525 mmHg 83%
    01:00 +6°C° 0 mm 1 mps 525 mmHg 80%
    02:00 +6°C° 0 mm 1 mps 524 mmHg 78%
    03:00 +6°C° 0 mm 1 mps 524 mmHg 75%
    04:00 +6°C° 0 mm 1 mps 524 mmHg 73%
    05:00 +7°C° 0 mm 1 mps 525 mmHg 70%
    06:00 +8°C° 0 mm 1 mps 526 mmHg 68%
    07:00 +8°C° 0 mm 0 mps 527 mmHg 66%
    08:00 +11°C° 0 mm 1 mps 529 mmHg 60%
    09:00 +14°C° 0 mm 1 mps 530 mmHg 55%
    10:00 +16°C° 0 mm 1 mps 532 mmHg 49%
    11:00 +16°C° 0.1 mm 1 mps 531 mmHg 51%
    12:00 +18°C° 0.1 mm 1 mps 530 mmHg 53%
    13:00 +17°C° 0.1 mm 2 mps 530 mmHg 55%
    14:00 +16°C° 0.3 mm 2 mps 529 mmHg 65%
    15:00 +15°C° 0.3 mm 2 mps 528 mmHg 75%
    16:00 +13°C° 0.3 mm 2 mps 527 mmHg 85%
    17:00 +12°C° 0.5 mm 1 mps 527 mmHg 88%
    18:00 +11°C° 0.5 mm 1 mps 527 mmHg 91%
    19:00 +10°C° 0.5 mm 1 mps 527 mmHg 95%
    20:00 +9°C° 0.1 mm 0 mps 527 mmHg 95%
    21:00 +8°C° 0.1 mm 0 mps 527 mmHg 94%
    22:00 +8°C° 0.1 mm 0 mps 527 mmHg 94%
    23:00 +7°C° 0 mm 0 mps 526 mmHg 93%

    Tomorrow, 7 December, Saturday

    Time Temperature Precipitation Wind Pressure Humidity
    00:00 +7°C° 0 mm 0 mps 526 mmHg 92%
    01:00 +8°C° 0 mm 1 mps 525 mmHg 91%
    02:00 +8°C° 0 mm 1 mps 525 mmHg 91%
    03:00 +7°C° 0 mm 1 mps 525 mmHg 90%
    04:00 +7°C° 0 mm 1 mps 525 mmHg 90%
    05:00 +8°C° 0 mm 1 mps 526 mmHg 89%
    06:00 +8°C° 0 mm 0 mps 526 mmHg 88%
    07:00 +8°C° 0 mm 0 mps 527 mmHg 86%
    08:00 +10°C° 0.1 mm 0 mps 528 mmHg 81%
    09:00 +13°C° 0.1 mm 1 mps 530 mmHg 77%
    10:00 +15°C° 0.1 mm 1 mps 531 mmHg 72%
    11:00 +15°C° 0.5 mm 1 mps 530 mmHg 77%
    12:00 +14°C° 0.5 mm 1 mps 529 mmHg 83%
    13:00 +13°C° 0.5 mm 1 mps 527 mmHg 89%
    14:00 +13°C° 1 mm 1 mps 527 mmHg 91%
    15:00 +12°C° 1 mm 1 mps 526 mmHg 92%
    16:00 +11°C° 1 mm 1 mps 526 mmHg 94%
    17:00 +11°C° 0.7 mm 1 mps 526 mmHg 95%
    18:00 +9°C° 0.7 mm 0 mps 526 mmHg 96%
    19:00 +9°C° 0.7 mm 0 mps 526 mmHg 97%
    20:00 +9°C° 1.3 mm 0 mps 526 mmHg 97%
    21:00 +10°C° 1.3 mm 1 mps 526 mmHg 96%
    22:00 +9°C° 1.3 mm 1 mps 527 mmHg 96%
    23:00 +9°C° 0.3 mm 1 mps 526 mmHg 96%

    Day after tomorrow, 8 December, Sunday

    Time Temperature Precipitation Wind Pressure Humidity
    00:00 +9°C° 0.3 mm 1 mps 526 mmHg 96%
    01:00 +9°C° 0.3 mm 1 mps 525 mmHg 96%
    02:00 +8°C° 0 mm 1 mps 525 mmHg 96%
    03:00 +8°C° 0 mm 1 mps 525 mmHg 95%
    04:00 +8°C° 0 mm 1 mps 525 mmHg 95%
    05:00 +8°C° 0 mm 1 mps 525 mmHg 94%
    06:00 +9°C° 0 mm 1 mps 526 mmHg 93%
    07:00 +9°C° 0 mm 1 mps 526 mmHg 91%
    08:00 +11°C° 0.1 mm 1 mps 528 mmHg 86%
    09:00 +13°C° 0.1 mm 1 mps 529 mmHg 81%
    10:00 +14°C° 0.1 mm 1 mps 530 mmHg 76%
    11:00 +14°C° 0.7 mm 1 mps 529 mmHg 80%
    12:00 +14°C° 0.7 mm 1 mps 528 mmHg 83%
    13:00 +13°C° 0.7 mm 1 mps 527 mmHg 86%
    14:00 +13°C° 1 mm 1 mps 527 mmHg 88%
    15:00 +12°C° 1 mm 1 mps 526 mmHg 91%
    16:00 +12°C° 1 mm 1 mps 526 mmHg 93%
    17:00 +11°C° 1.3 mm 1 mps 526 mmHg 94%
    18:00 +11°C° 1.3 mm 1 mps 526 mmHg 96%
    19:00 +9°C° 1.3 mm 0 mps 526 mmHg 97%
    20:00 +9°C° 1.8 mm 0 mps 526 mmHg 97%
    21:00 +9°C° 1.8 mm 0 mps 526 mmHg 97%
    22:00 +8°C° 1.8 mm 0 mps 527 mmHg 96%
    23:00 +8°C° 0.3 mm 0 mps 526 mmHg 96%

    9 December, Monday

    Time Temperature Precipitation Wind Pressure Humidity
    00:00 +8°C° 0.3 mm 0 mps 526 mmHg 96%
    01:00 +9°C° 0.3 mm 1 mps 525 mmHg 96%
    02:00 +9°C° 0.1 mm 1 mps 525 mmHg 96%
    03:00 +9°C° 0.1 mm 1 mps 525 mmHg 95%
    04:00 +9°C° 0.1 mm 1 mps 525 mmHg 95%
    05:00 +8°C° 0 mm 0 mps 526 mmHg 94%
    06:00 +8°C° 0 mm 0 mps 526 mmHg 93%
    07:00 +9°C° 0 mm 0 mps 527 mmHg 91%
    08:00 +10°C° 0.2 mm 0 mps 528 mmHg 88%
    09:00 +12°C° 0.2 mm 1 mps 528 mmHg 84%
    10:00 +14°C° 0.2 mm 1 mps 529 mmHg 81%
    11:00 +13°C° 0.8 mm 1 mps 528 mmHg 84%
    12:00 +13°C° 0.8 mm 1 mps 528 mmHg 87%
    13:00 +13°C° 0.8 mm 1 mps 527 mmHg 90%
    14:00 +12°C° 0.6 mm 1 mps 526 mmHg 90%
    15:00 +12°C° 0.6 mm 1 mps 526 mmHg 90%
    16:00 +12°C° 0.6 mm 1 mps 525 mmHg 91%
    17:00 +11°C° 0.4 mm 1 mps 525 mmHg 92%
    18:00 +10°C° 0.4 mm 1 mps 525 mmHg 94%
    19:00 +8°C° 0.4 mm 0 mps 525 mmHg 96%
    20:00 +8°C° 0.2 mm 0 mps 525 mmHg 95%
    21:00 +8°C° 0.2 mm 0 mps 526 mmHg 95%
    22:00 +8°C° 0.2 mm 0 mps 526 mmHg 94%
    23:00 +7°C° 0 mm 0 mps 525 mmHg 94%

    10 December, Tuesday

    Time Temperature Precipitation Wind Pressure Humidity
    00:00 +7°C° 0 mm 0 mps 525 mmHg 94%
    01:00 +7°C° 0 mm 0 mps 524 mmHg 93%
    02:00 +7°C° 0 mm 1 mps 524 mmHg 92%
    03:00 +7°C° 0 mm 1 mps 524 mmHg 90%
    04:00 +7°C° 0 mm 1 mps 524 mmHg 89%
    05:00 +8°C° 0 mm 1 mps 525 mmHg 85%
    06:00 +8°C° 0 mm 1 mps 525 mmHg 81%
    07:00 +8°C° 0 mm 0 mps 526 mmHg 77%
    08:00 +11°C° 0 mm 1 mps 528 mmHg 68%
    09:00 +13°C° 0 mm 1 mps 529 mmHg 59%
    10:00 +16°C° 0 mm 1 mps 530 mmHg 51%
    11:00 +16°C° 0 mm 1 mps 530 mmHg 53%
    12:00 +16°C° 0 mm 2 mps 530 mmHg 55%
    13:00 +16°C° 0 mm 2 mps 529 mmHg 57%
    14:00 +15°C° 0.2 mm 2 mps 528 mmHg 65%
    15:00 +14°C° 0.2 mm 2 mps 527 mmHg 73%
    16:00 +13°C° 0.2 mm 2 mps 526 mmHg 80%
    17:00 +12°C° 0.1 mm 1 mps 526 mmHg 86%
    18:00 +11°C° 0.1 mm 1 mps 526 mmHg 91%
    19:00 +9°C° 0.1 mm 0 mps 526 mmHg 96%
    20:00 +9°C° 0 mm 0 mps 526 mmHg 95%
    21:00 +8°C° 0 mm 0 mps 526 mmHg 94%
    22:00 +9°C° 0 mm 1 mps 526 mmHg 93%
    23:00 +8°C° 0 mm 1 mps 525 mmHg 93%

    11 December, Wednesday

    Time Temperature Precipitation Wind Pressure Humidity
    00:00 +8°C° 0 mm 1 mps 525 mmHg 94%
    01:00 +8°C° 0 mm 1 mps 525 mmHg 94%
    02:00 +8°C° 0 mm 1 mps 525 mmHg 94%
    03:00 +8°C° 0 mm 1 mps 524 mmHg 93%
    04:00 +8°C° 0 mm 1 mps 524 mmHg 93%
    05:00 +8°C° 0 mm 1 mps 525 mmHg 92%
    06:00 +9°C° 0 mm 1 mps 526 mmHg 91%
    07:00 +9°C° 0 mm 1 mps 526 mmHg 90%
    08:00 +11°C° 0 mm 1 mps 528 mmHg 83%
    09:00 +13°C° 0 mm 1 mps 529 mmHg 75%
    10:00 +15°C° 0 mm 1 mps 530 mmHg 68%
    11:00 +15°C° 0.3 mm 1 mps 529 mmHg 71%
    12:00 +15°C° 0.3 mm 1 mps 528 mmHg 75%
    13:00 +15°C° 0.3 mm 2 mps 528 mmHg 79%
    14:00 +14°C° 0.6 mm 1 mps 527 mmHg 83%
    15:00 +13°C° 0.6 mm 1 mps 526 mmHg 87%
    16:00 +12°C° 0.6 mm 1 mps 525 mmHg 91%
    17:00 +12°C° 1 mm 1 mps 525 mmHg 93%
    18:00 +11°C° 1 mm 1 mps 525 mmHg 95%
    19:00 +10°C° 1 mm 1 mps 525 mmHg 97%
    20:00 +9°C° 2.5 mm 0 mps 526 mmHg 97%
    21:00 +9°C° 2.5 mm 0 mps 526 mmHg 97%
    22:00 +9°C° 2.5 mm 0 mps 526 mmHg 97%
    23:00 +8°C° 1.4 mm 0 mps 526 mmHg 96%
    Show more